Location: Shepherdstown, WV
(39.4326°N, 77.8042°W)
Time: 06:27:58
(UTC-04:00)

Vanguard 1 - Pass Details

Date: 04 August 2021
Orbit: 652 x 3831 km, 34.3° (Epoch: 24 September)

Event Time Altitude Azimuth Distance (km) Brightness Sun altitude
Rises 14:33:48 0° 270° (W) 3,376 13.1 62.1°
Reaches altitude 10° 14:35:56 10° 264° (W) 2,638 12.8 61.8°
Maximum altitude 14:41:53 46° 192° (SSW) 1,676 12.7 61.0°
Drops below altitude 10° 14:52:12 10° 124° (SE) 4,517 13.5 59.5°
Sets 14:57:05 0° 119° (ESE) 6,063 14.0 58.8°
